NOAA 16 DEB

Satellite information

Favourite Embed

Satellite Type and Status

DEBRISIN ORBIT

Key statistics

Satellite NOAA 16 DEB at a glance.

Uptime

9056

Days in orbit

Revolutions

≈ 14.5

Per day

Orbit

SSO

Sun Synchronous Orbit

Inclination

99.0

Latest

Satellite identification and parameters

Extended collection of information and parameters for NOAA 16 DEB.

Object identification

Identified? True

Debris? True

Object name: NOAA 16 DEB

International designator: 2000-055JF

Object number (NORAD): 41362

Object ID (CCSDS): 41362

Country: UNITED STATES OF AMERICA (US)

Current information (Y/N): Y

RCS size: SMALL

Orbital parameters

Period: 99.078 minutes

Inclination: 98.9702 deg

SMA: 7092.716 km

Apoapsis: 738.474 km

Periapsis: 690.689 km

RAAN: 22.7314 deg

Eccentricy: 0.0033686

Argument of periapsis: 341.8131 deg

Mean anomaly: 18.1855 deg

Mean motion: 14.53395754 rev/day

Mean motion (dot): 0.00005675 rev/day2

B* drag term: 0.0013654 1/REarth

Two-line elements (TLE)

Creation date: July 8, 2025, 2:27 a.m.

Reference frame: TEME

Reference center: EARTH

Epoch: July 7, 2025, 6:59 p.m. UTC

TLE line 0: 0 NOAA 16 DEB

TLE line 1: 1 41362U 00055JF 25188.79099503 .00005675 00000-0 13654-2 0 9996

TLE line 2: 2 41362 98.9702 22.7314 0033686 341.8131 18.1855 14.53395754492693

Live tracking on map

Real-time ground track for satellite NOAA 16 DEB.

In-orbit conjunctions

A list of the most updated potential collisions computed for object NOAA 16 DEB.

Target Orbit TCA Probability of collision Miss distance Type
DMSP 5D-2 F15 DEB SSO 2024-09-30 14:13:46 0.0002660433 122.0 (m) DEBRIS
CZ-6A DEB SSO 2024-09-27 00:07:46 0.0002645708 566.0 (m) DEBRIS

Associated space launch

The NOAA K, L and M POES satellites begin the fifth generation of improved environmental monitoring in support of NOAA missions. The instrument payload has significant improvements and additions/deletions. The instrument changes have effected the spacecraft subsystems and data formats.

NOAA 16 DEB was lifted into orbit during the mission ‘Titan II SLV | NOAA 16’, on board a Titan II SLV space rocket.

The launch took place on Sept. 21, 2000, 10:22 a.m. from Space Launch Complex 4W.

For more information about the launch, click the button.

Launch to space Titan II SLV | NOAA 16
Titan II SLV | NOAA 16

Agency: N/A

Status: Launch Successful

Launch date: Sept. 21, 2000, 10:22 a.m. UTC

Rocket: Titan II SLV

Launch pad: Space Launch Complex 4W

Location: Vandenberg SFB, CA, USA

...

Latest news about this satellite

There are no fresh news available about this satellite. Check back as we update our databases every day.


Newsletter sign-up

Weekly statistics, charts and insights to help you stay on top of the space industry.